Terminal Aerodrome Forecast
Issued by NWS Pittsburgh, PA

Current Version | Previous Version | Text Only | Print | Product List | Glossary Off
Versions: 1 2 3 4 5 6 7 8 9 10 11 12 13 14 15 16 17 18 19 20 21 22 23 24 25 26 27 28 29 30 31 32 33

000
FTUS41 KPBZ 050523
TAFPIT
TAF
KPIT 050523Z 0506/0612 15003KT P6SM BKN100
     FM050700 25005KT 3SM BR OVC050
     FM051200 24007KT 4SM -SHRA BR OVC035
     FM052100 25004KT P6SM VCTS BKN035CB
     FM060300 33003KT P6SM BKN080=

USA.gov is the U.S. government's official web portal to all federal, state and local government web resources and services.